Date String (YYYY-MM-DD hh:mm:ss) UTC,Instrument flags,Ambient pressure (hPa),Sample flow (lpm),Bypass flow (lpm),Sample temperature (°C),Ambient temperature (°C),ASC tube jacket temperature (°C),LED temperature (°C),Box temperature (°C),Sample RH (%),Span deviation,Mass concentration (μg/m³),Mass concentration (μg/m³),Mass concentration (μg/m³)
DateTimeUTC,F1_M11,P_M11,Q1_M11,Q2_M11,T1_M11,T2_M11,T3_M11,T4_M11,T5_M11,U1_M11,ZSPAN_M11,X0_M11,X2_M11,X1_M11
2022-12-22 12:00:00,,0826.9,5.02,0.00,21.3,19.6,00.0,30.2,22.5,02.4,-001.3,0007.98,0004.32,0003.66
2022-12-22 12:01:00,,0826.8,5.02,0.00,21.2,19.6,00.0,30.1,22.4,02.4,-000.9,0008.08,0004.35,0003.69
2022-12-22 12:02:00,,0826.9,4.99,0.00,21.3,20.4,00.0,30.0,22.7,02.4,-000.7,0008.01,0004.35,0003.69
2022-12-22 12:03:00,,0827.2,5.00,0.00,21.3,21.0,00.0,30.0,22.9,02.4,-000.5,0008.06,0004.38,0003.70
2022-12-22 12:04:00,,0827.2,5.00,0.00,21.4,21.5,00.0,30.0,23.1,02.4,-000.1,0008.12,0004.41,0003.72
2022-12-22 12:05:00,,0827.1,5.01,0.00,21.5,21.8,00.0,30.0,23.2,02.4,0000.4,0008.08,0004.39,0003.71
2022-12-22 12:06:00,,0827.2,4.97,0.00,21.6,22.1,00.0,30.1,23.3,02.3,0000.9,0008.01,0004.38,0003.71
2022-12-22 12:07:00,,0827.2,5.04,0.00,21.6,21.4,00.0,30.1,23.2,02.3,0001.0,0008.03,0004.40,0003.71
2022-12-22 12:08:00,,0827.3,5.03,0.00,21.4,20.1,00.0,30.2,22.7,02.3,0000.6,0008.01,0004.39,0003.70
2022-12-22 12:09:00,,0827.2,4.99,0.00,21.2,19.3,00.0,30.2,22.4,02.4,0001.3,0008.03,0004.37,0003.71
2022-12-22 12:10:00,,0827.2,4.98,0.00,21.3,19.9,00.0,30.1,22.6,02.4,0001.3,0008.28,0004.37,0003.71
2022-12-22 12:11:00,,0827.2,5.04,0.00,21.3,20.6,00.0,30.0,22.8,02.3,0002.1,0008.27,0004.36,0003.70
2022-12-22 12:12:00,,0827.1,4.96,0.00,21.4,21.2,00.0,30.0,23.0,02.3,0002.7,0008.31,0004.37,0003.70
2022-12-22 12:13:00,,0827.2,5.02,0.00,21.5,21.7,00.0,30.0,23.2,02.3,0003.0,0008.48,0004.41,0003.70
2022-12-22 12:14:00,,0827.1,4.97,0.00,21.6,22.0,00.0,30.1,23.3,02.3,0003.2,0008.54,0004.39,0003.70
2022-12-22 12:15:00,,0827.2,5.03,0.00,21.7,22.1,00.0,30.1,23.4,02.3,0002.9,0008.52,0004.39,0003.70
2022-12-22 12:16:00,,0827.2,4.96,0.00,21.7,22.3,00.0,30.1,23.5,02.3,0003.0,0008.45,0004.37,0003.70
2022-12-22 12:17:00,,0827.1,5.03,0.00,21.7,21.6,00.0,30.2,23.3,02.3,0002.8,0008.50,0004.38,0003.71
2022-12-22 12:18:00,,0827.2,5.00,0.00,21.5,20.2,00.0,30.3,22.8,02.3,0002.9,0008.66,0004.41,0003.72
2022-12-22 12:19:00,,0827.2,4.97,0.00,21.3,19.1,00.0,30.3,22.4,02.3,0002.8,0008.68,0004.41,0003.72
2022-12-22 12:20:00,,0827.1,5.01,0.00,21.3,19.6,00.0,30.2,22.5,02.3,0002.4,0008.60,0004.40,0003.72
2022-12-22 12:21:00,,0827.2,5.00,0.00,21.3,20.3,00.0,30.1,22.7,02.3,0002.6,0008.41,0004.44,0003.73
2022-12-22 12:22:00,,0827.2,5.00,0.00,21.4,21.0,00.0,30.1,22.9,02.3,0002.2,0008.43,0004.46,0003.74
2022-12-22 12:23:00,,0827.4,5.00,0.00,21.5,21.4,00.0,30.1,23.1,02.3,0001.8,0008.30,0004.42,0003.73
2022-12-22 12:24:00,,0827.4,5.01,0.00,21.5,21.7,00.0,30.1,23.2,02.3,0001.0,0008.15,0004.37,0003.72
2022-12-22 12:25:00,,0827.5,5.00,0.00,21.6,21.9,00.0,30.1,23.3,02.2,0000.6,0008.20,0004.40,0003.72
2022-12-22 12:26:00,,0827.4,4.97,0.00,21.7,22.1,00.0,30.1,23.4,02.2,0000.7,0008.24,0004.39,0003.72
2022-12-22 12:27:00,,0827.4,5.04,0.00,21.8,22.2,00.0,30.2,23.5,02.2,0000.7,0008.25,0004.38,0003.71
2022-12-22 12:28:00,,0827.4,5.01,0.00,21.7,20.8,00.0,30.3,23.1,02.2,0000.3,0008.32,0004.36,0003.71
2022-12-22 12:29:00,,0827.3,4.98,0.00,21.4,19.3,00.0,30.3,22.5,02.2,0000.1,0008.18,0004.34,0003.71
2022-12-22 12:30:00,,0827.3,5.02,0.00,21.3,18.8,00.0,30.2,22.3,02.3,0000.5,0008.21,0004.36,0003.71
2022-12-22 12:31:00,,0827.4,5.03,0.00,21.3,19.8,00.0,30.1,22.6,02.2,0001.0,0008.31,0004.40,0003.73
2022-12-22 12:32:00,,0827.4,4.98,0.00,21.3,20.8,00.0,30.1,22.8,02.2,0000.4,0008.38,0004.43,0003.73
2022-12-22 12:33:00,,0827.4,5.00,0.00,21.4,21.5,00.0,30.1,23.0,02.2,0000.4,0008.34,0004.42,0003.73
2022-12-22 12:34:00,,0827.4,4.97,0.00,21.5,22.0,00.0,30.1,23.2,02.2,0000.5,0008.31,0004.42,0003.73
2022-12-22 12:35:00,,0827.5,5.04,0.00,21.5,21.9,00.0,30.2,23.2,02.2,0000.8,0008.29,0004.42,0003.74
2022-12-22 12:36:00,,0827.5,4.97,0.00,21.5,20.9,00.0,30.2,23.0,02.2,0000.3,0008.17,0004.40,0003.73
2022-12-22 12:37:00,,0827.5,5.01,0.00,21.4,20.1,00.0,30.2,22.7,02.2,0000.8,0008.13,0004.41,0003.75
2022-12-22 12:38:00,,0827.5,5.03,0.00,21.3,19.7,00.0,30.2,22.6,02.2,0001.1,0008.17,0004.44,0003.77
2022-12-22 12:39:00,,0827.5,4.98,0.00,21.3,20.6,00.0,30.1,22.8,02.2,0001.5,0008.12,0004.47,0003.78
2022-12-22 12:40:00,,0827.5,5.01,0.00,21.4,21.4,00.0,30.1,23.0,02.1,0001.2,0008.69,0004.50,0003.81
2022-12-22 12:41:00,,0827.6,4.98,0.00,21.5,22.0,00.0,30.1,23.2,02.1,0001.1,0008.78,0004.50,0003.82
2022-12-22 12:42:00,,0827.6,5.02,0.00,21.5,21.7,00.0,30.2,23.2,02.1,0001.5,0008.71,0004.47,0003.82
2022-12-22 12:43:00,,0827.5,5.00,0.00,21.4,20.5,00.0,30.2,22.9,02.1,0002.1,0008.54,0004.41,0003.83
2022-12-22 12:44:00,,0827.5,4.97,0.00,21.3,19.5,00.0,30.2,22.5,02.1,0002.6,0008.55,0004.43,0003.84
2022-12-22 12:45:00,,0827.5,5.03,0.00,21.2,20.0,00.0,30.1,22.6,02.1,0002.7,0008.49,0004.42,0003.85
2022-12-22 12:46:00,,0827.6,5.00,0.00,21.3,20.8,00.0,30.1,22.9,02.1,0002.7,0008.54,0004.45,0003.87
2022-12-22 12:47:00,,0827.5,5.00,0.00,21.4,21.5,00.0,30.1,23.1,02.1,0002.7,0008.53,0004.46,0003.89
2022-12-22 12:48:00,,0827.5,4.99,0.00,21.5,22.0,00.0,30.1,23.2,02.1,0002.4,0008.54,0004.47,0003.89
2022-12-22 12:49:00,,0827.6,5.00,0.00,21.6,21.6,00.0,30.2,23.2,02.1,0002.1,0008.52,0004.46,0003.89
2022-12-22 12:50:00,,0827.5,5.02,0.00,21.4,20.4,00.0,30.2,22.8,02.1,0002.0,0008.56,0004.47,0003.89
2022-12-22 12:51:00,,0827.6,4.95,0.00,21.2,19.4,00.0,30.2,22.4,02.1,0002.5,0008.00,0004.45,0003.87
2022-12-22 12:52:00,,0827.7,5.04,0.00,21.2,19.9,00.0,30.1,22.5,02.1,0003.1,0007.79,0004.43,0003.86
2022-12-22 12:53:00,,0827.7,5.00,0.00,21.3,20.6,00.0,30.1,22.7,02.1,0003.0,0007.77,0004.44,0003.86
2022-12-22 12:54:00,,0827.7,4.98,0.00,21.4,21.2,00.0,30.0,22.9,02.1,0003.1,0007.89,0004.48,0003.88
2022-12-22 12:55:00,,0827.6,5.00,0.00,21.5,21.7,00.0,30.1,23.2,02.1,0002.8,0007.91,0004.46,0003.87
2022-12-22 12:56:00,,0827.6,5.00,0.00,21.6,22.1,00.0,30.1,23.3,02.1,0002.9,0008.10,0004.50,0003.88
2022-12-22 12:57:00,,0827.7,5.00,0.00,21.6,21.5,00.0,30.2,23.1,02.1,0003.2,0008.16,0004.49,0003.88
2022-12-22 12:58:00,,0827.7,4.99,0.00,21.4,20.1,00.0,30.2,22.7,02.1,0003.6,0008.27,0004.53,0003.89
2022-12-22 12:59:00,,0827.6,5.02,0.00,21.2,19.0,00.0,30.2,22.3,02.1,0003.9,0008.25,0004.52,0003.89
